QPF
0.00 0.00 0.00 0.00 0.00 0.00 0.00 0.00 0.00 0.00 0.00 0.01 0.01 0.01 0.01 0.01 0.01 0.01 0.01 0.02 0.02 0.02 0.01 0.01 0.01 0.01 0.01 0.01 0.01 0.01 0.01 0.00 0.00 0.00 0.00 0.00 0.01 0.01 0.01 0.01 0.01 0.01 0.01
0.00 0.00 0.00 0.00 0.00 0.00 0.00 0.00 0.00 0.00 0.01 0.01 0.01 0.01 0.01 0.01 0.01 0.02 0.02 0.02 0.01 0.01 0.02 0.02 0.02 0.01 0.01 0.01 0.01 0.00 0.00 0.00 0.00 0.00 0.00 0.00 0.00 0.00 0.00 0.01 0.01 0.01 0.01
0.00 0.00 0.00 0.00 0.00 0.00 0.00 0.00 0.00 0.00 0.01 0.01 0.01 0.01 0.01 0.02 0.03 0.04 0.04 0.02 0.01 0.01 0.02 0.02 0.01 0.01 0.01 0.00 0.00 0.00 0.00 0.00 0.00 0.00 0.00 0.00 0.00 0.00 0.00 0.00 0.00 0.01 0.01
0.00 0.00 0.00 0.01 0.01 0.01 0.00 0.00 0.00 0.01 0.01 0.01 0.02 0.02 0.02 0.02 0.03 0.04 0.04 0.02 0.01 0.01 0.02 0.02 0.01 0.00 0.00 0.00 0.00 0.00 0.00 0.00 0.00 0.00 0.01 0.00 0.00 0.01 0.01 0.01 0.01 0.01 0.01
0.00 0.01 0.01 0.01 0.01 0.01 0.01 0.01 0.01 0.01 0.01 0.01 0.02 0.02 0.02 0.02 0.03 0.04 0.03 0.02 0.02 0.02 0.02 0.01 0.00 0.00 0.00 0.00 0.00 0.00 0.00 0.00 0.00 0.01 0.01 0.00 0.00 0.01 0.00 0.00 0.00 0.01 0.00
0.02 0.02 0.02 0.01 0.01 0.01 0.01 0.01 0.01 0.01 0.01 0.01 0.02 0.03 0.03 0.03 0.03 0.03 0.03 0.03 0.02 0.02 0.01 0.00 0.00 0.00 0.00 0.00 0.00 0.00 0.00 0.00 0.00 0.00 0.00 0.00 0.00 0.00 0.00 0.01 0.00 0.00 0.00
0.03 0.03 0.03 0.02 0.02 0.03 0.02 0.01 0.01 0.01 0.01 0.02 0.02 0.03 0.03 0.03 0.03 0.03 0.03 0.02 0.02 0.02 0.01 0.00 0.00 0.00 0.00 0.00 0.00 0.00 0.00 0.00 0.00 0.00 0.00 0.00 0.00 0.00 0.01 0.00 0.00 0.00 0.00
0.03 0.06 0.05 0.03 0.03 0.02 0.02 0.02 0.02 0.02 0.02 0.02 0.03 0.04 0.04 0.03 0.03 0.03 0.03 0.02 0.01 0.02 0.01 0.00 0.00 0.00 0.00 0.00 0.00 0.00 0.00 0.00 0.00 0.00 0.00 0.00 0.00 0.00 0.00 0.00 0.00 0.00 0.00
0.06 0.10 0.07 0.05 0.04 0.04 0.06 0.05 0.04 0.03 0.03 0.04 0.05 0.05 0.04 0.04 0.04 0.03 0.03 0.02 0.02 0.02 0.01 0.00 0.00 0.00 0.00 0.00 0.00 0.00 0.00 0.00 0.00 0.00 0.00 0.00 0.00 0.00 0.00 0.00 0.00 0.00 0.00
0.10 0.13 0.11 0.07 0.05 0.05 0.05 0.05 0.04 0.04 0.03 0.04 0.05 0.05 0.04 0.04 0.04 0.03 0.02 0.02 0.02 0.01 0.01 0.00 0.00 0.00 0.00 0.00 0.00 0.00 0.00 0.00 0.00 0.00 0.00 0.00 0.00 0.00 0.00 0.00 0.00 0.00 0.00
0.14 0.18 0.18 0.13 0.10 0.07 0.06 0.04 0.04 0.03 0.03 0.04 0.04 0.03 0.05 0.05 0.04 0.03 0.02 0.01 0.01 0.01 0.01 0.00 0.00 0.00 0.00 0.00 0.00 0.00 0.00 0.00 0.00 0.00 0.00 0.00 0.00 0.00 0.00 0.00 0.00 0.00 0.00
0.18 0.21 0.22 0.19 0.14 0.11 0.08 0.06 0.06 0.04 0.03 0.04 0.04 0.04 0.05 0.05 0.04 0.02 0.02 0.01 0.01 0.01 0.01 0.01 0.00 0.00 0.00 0.00 0.00 0.00 0.00 0.00 0.00 0.00 0.00 0.00 0.00 0.00 0.00 0.00 0.00 0.00 0.00
0.19 0.23 0.25 0.22 0.19 0.14 0.12 0.10 0.07 0.06 0.04 0.04 0.04 0.04 0.06 0.06 0.04 0.03 0.02 0.02 0.01 0.01 0.01 0.01 0.00 0.00 0.00 0.00 0.00 0.00 0.00 0.00 0.00 0.00 0.00 0.00 0.00 0.00 0.00 0.00 0.00 0.00 0.00
0.23 0.24 0.27 0.25 0.23 0.18 0.14 0.12 0.12 0.09 0.05 0.04 0.04 0.04 0.05 0.05 0.03 0.02 0.01 0.01 0.01 0.01 0.01 0.01 0.00 0.00 0.00 0.00 0.00 0.00 0.00 0.00 0.00 0.00 0.00 0.00 0.00 0.00 0.00 0.00 0.00 0.00 0.00
0.26 0.28 0.31 0.30 0.26 0.22 0.17 0.13 0.14 0.15 0.09 0.05 0.04 0.04 0.03 0.03 0.02 0.02 0.01 0.01 0.01 0.01 0.01 0.01 0.00 0.00 0.00 0.00 0.00 0.00 0.00 0.00 0.00 0.00 0.00 0.00 0.00 0.00 0.00 0.00 0.00 0.00 0.00
0.31 0.34 0.36 0.35 0.31 0.28 0.23 0.14 0.13 0.16 0.14 0.10 0.06 0.05 0.04 0.03 0.02 0.01 0.01 0.01 0.01 0.01 0.01 0.01 0.01 0.01 0.01 0.01 0.00 0.00 0.00 0.00 0.00 0.00 0.00 0.00 0.00 0.00 0.00 0.00 0.00 0.00 0.01
0.30 0.36 0.41 0.39 0.37 0.32 0.29 0.18 0.13 0.13 0.13 0.11 0.08 0.05 0.03 0.03 0.02 0.01 0.01 0.01 0.01 0.01 0.01 0.02 0.02 0.01 0.01 0.01 0.01 0.01 0.00 0.00 0.00 0.00 0.00 0.00 0.00 0.00 0.00 0.00 0.00 0.00 0.01
0.30 0.34 0.45 0.44 0.42 0.36 0.34 0.26 0.15 0.13 0.11 0.09 0.08 0.06 0.04 0.03 0.02 0.02 0.01 0.01 0.01 0.01 0.01 0.01 0.01 0.00 0.01 0.00 0.01 0.01 0.00 0.00 0.00 0.00 0.00 0.00 0.00 0.00 0.00 0.00 0.00 0.00 0.00
0.32 0.35 0.44 0.49 0.46 0.42 0.36 0.33 0.21 0.16 0.12 0.08 0.07 0.06 0.05 0.03 0.02 0.02 0.01 0.01 0.01 0.01 0.01 0.00 0.00 0.00 0.00 0.00 0.00 0.00 0.00 0.00 0.00 0.00 0.00 0.00 0.00 0.00 0.00 0.00 0.00 0.00 0.00
0.37 0.39 0.43 0.45 0.46 0.46 0.40 0.37 0.29 0.24 0.17 0.10 0.07 0.05 0.04 0.04 0.03 0.03 0.02 0.02 0.02 0.02 0.01 0.01 0.01 0.01 0.00 0.00 0.00 0.00 0.00 0.00 0.00 0.00 0.00 0.00 0.00 0.00 0.00 0.00 0.00 0.00 0.00
0.41 0.39 0.46 0.48 0.48 0.50 0.44 0.39 0.31 0.24 0.23 0.18 0.11 0.06 0.05 0.05 0.04 0.04 0.03 0.03 0.03 0.03 0.03 0.03 0.03 0.03 0.02 0.02 0.02 0.01 0.01 0.01 0.01 0.00 0.00 0.00 0.00 0.00 0.00 0.00 0.00 0.00 0.00
0.43 0.46 0.45 0.49 0.49 0.51 0.47 0.39 0.32 0.25 0.22 0.21 0.17 0.11 0.06 0.04 0.03 0.03 0.02 0.03 0.03 0.04 0.03 0.03 0.04 0.04 0.05 0.04 0.03 0.02 0.01 0.01 0.00 0.00 0.01 0.00 0.00 0.00 0.00 0.00 0.00 0.00 0.00
0.30 0.43 0.48 0.43 0.44 0.42 0.44 0.45 0.35 0.28 0.24 0.21 0.18 0.16 0.10 0.06 0.03 0.02 0.02 0.03 0.03 0.04 0.04 0.04 0.04 0.04 0.04 0.05 0.04 0.04 0.03 0.02 0.02 0.01 0.01 0.00 0.00 0.00 0.00 0.00 0.00 0.00 0.00
0.22 0.30 0.46 0.45 0.41 0.40 0.41 0.46 0.41 0.31 0.23 0.20 0.16 0.14 0.14 0.09 0.06 0.04 0.04 0.04 0.04 0.04 0.04 0.04 0.05 0.05 0.06 0.07 0.06 0.04 0.04 0.04 0.04 0.03 0.01 0.01 0.01 0.01 0.01 0.01 0.00 0.00 0.00
0.17 0.22 0.38 0.46 0.44 0.41 0.37 0.38 0.38 0.32 0.29 0.24 0.21 0.16 0.16 0.14 0.10 0.07 0.05 0.06 0.06 0.06 0.06 0.05 0.05 0.05 0.06 0.07 0.06 0.05 0.04 0.03 0.03 0.03 0.02 0.02 0.02 0.01 0.01 0.01 0.01 0.00 0.00
0.13 0.18 0.32 0.41 0.41 0.40 0.36 0.33 0.31 0.28 0.30 0.26 0.22 0.21 0.17 0.15 0.12 0.11 0.09 0.08 0.07 0.08 0.08 0.07 0.06 0.06 0.06 0.07 0.08 0.07 0.06 0.05 0.04 0.04 0.04 0.03 0.03 0.02 0.01 0.01 0.01 0.01 0.00
MSLP
1005.34 1005.37 1005.68 1006.25 1006.98 1007.74 1008.45 1009.04 1009.48 1009.79 1010.04 1010.29 1010.61 1011.01 1011.49 1012.03 1012.56 1013.03 1013.42 1013.71 1013.91 1014.08 1014.24 1014.44 1014.69 1014.99 1015.30 1015.61 1015.87 1016.09 1016.24 1016.35 1016.43 1016.52 1016.62 1016.74 1016.87 1016.99 1017.09 1017.17 1017.21 1017.24 1017.27
1005.16 1005.22 1005.56 1006.16 1006.90 1007.68 1008.41 1009.01 1009.47 1009.81 1010.09 1010.38 1010.72 1011.15 1011.66 1012.21 1012.75 1013.23 1013.62 1013.92 1014.14 1014.32 1014.50 1014.71 1014.97 1015.27 1015.58 1015.88 1016.14 1016.35 1016.51 1016.65 1016.77 1016.90 1017.04 1017.19 1017.34 1017.46 1017.54 1017.59 1017.60 1017.61 1017.62
1004.94 1005.02 1005.38 1005.99 1006.75 1007.55 1008.30 1008.93 1009.43 1009.82 1010.14 1010.47 1010.84 1011.28 1011.79 1012.33 1012.86 1013.33 1013.72 1014.03 1014.27 1014.48 1014.70 1014.95 1015.23 1015.53 1015.83 1016.11 1016.36 1016.56 1016.73 1016.89 1017.04 1017.22 1017.41 1017.59 1017.76 1017.89 1017.97 1018.00 1018.00 1017.99 1018.00
1004.76 1004.85 1005.22 1005.82 1006.58 1007.39 1008.15 1008.81 1009.36 1009.79 1010.16 1010.53 1010.92 1011.37 1011.87 1012.39 1012.89 1013.34 1013.73 1014.05 1014.33 1014.60 1014.87 1015.17 1015.48 1015.79 1016.09 1016.35 1016.57 1016.75 1016.91 1017.07 1017.26 1017.47 1017.70 1017.93 1018.13 1018.28 1018.36 1018.39 1018.38 1018.36 1018.37
1004.69 1004.78 1005.14 1005.72 1006.46 1007.25 1008.01 1008.68 1009.25 1009.72 1010.13 1010.53 1010.95 1011.41 1011.89 1012.38 1012.85 1013.29 1013.68 1014.03 1014.36 1014.70 1015.04 1015.40 1015.75 1016.08 1016.37 1016.61 1016.79 1016.94 1017.08 1017.25 1017.44 1017.69 1017.95 1018.21 1018.44 1018.61 1018.70 1018.74 1018.73 1018.72 1018.73
1004.79 1004.88 1005.21 1005.76 1006.45 1007.18 1007.90 1008.55 1009.12 1009.61 1010.06 1010.49 1010.93 1011.39 1011.87 1012.34 1012.79 1013.21 1013.62 1014.01 1014.40 1014.81 1015.23 1015.65 1016.06 1016.41 1016.69 1016.90 1017.05 1017.16 1017.28 1017.42 1017.62 1017.88 1018.17 1018.46 1018.71 1018.89 1019.01 1019.05 1019.05 1019.05 1019.08
1005.09 1005.17 1005.49 1005.98 1006.58 1007.24 1007.88 1008.47 1009.00 1009.49 1009.95 1010.41 1010.87 1011.35 1011.82 1012.29 1012.73 1013.16 1013.58 1014.01 1014.47 1014.95 1015.45 1015.94 1016.39 1016.77 1017.05 1017.23 1017.34 1017.42 1017.50 1017.63 1017.82 1018.08 1018.38 1018.69 1018.96 1019.16 1019.28 1019.34 1019.36 1019.37 1019.41
1005.55 1005.66 1005.94 1006.37 1006.88 1007.42 1007.94 1008.44 1008.91 1009.36 1009.82 1010.30 1010.79 1011.29 1011.79 1012.27 1012.72 1013.16 1013.61 1014.08 1014.59 1015.13 1015.69 1016.24 1016.72 1017.12 1017.40 1017.57 1017.65 1017.70 1017.75 1017.86 1018.05 1018.31 1018.62 1018.93 1019.21 1019.42 1019.56 1019.63 1019.66 1019.69 1019.74
1006.12 1006.26 1006.53 1006.89 1007.28 1007.69 1008.08 1008.45 1008.84 1009.24 1009.69 1010.18 1010.71 1011.25 1011.77 1012.28 1012.76 1013.22 1013.69 1014.20 1014.74 1015.33 1015.93 1016.51 1017.02 1017.42 1017.70 1017.86 1017.93 1017.96 1018.01 1018.11 1018.29 1018.56 1018.88 1019.20 1019.48 1019.70 1019.84 1019.92 1019.97 1020.01 1020.08
1006.70 1006.88 1007.13 1007.42 1007.71 1007.97 1008.22 1008.47 1008.76 1009.11 1009.54 1010.05 1010.61 1011.20 1011.78 1012.33 1012.84 1013.33 1013.82 1014.34 1014.90 1015.51 1016.13 1016.72 1017.23 1017.64 1017.91 1018.07 1018.13 1018.17 1018.22 1018.33 1018.53 1018.81 1019.14 1019.47 1019.76 1019.99 1020.14 1020.23 1020.28 1020.33 1020.40
1007.19 1007.41 1007.65 1007.88 1008.06 1008.19 1008.30 1008.43 1008.62 1008.93 1009.35 1009.88 1010.49 1011.13 1011.77 1012.37 1012.92 1013.44 1013.95 1014.48 1015.04 1015.64 1016.25 1016.83 1017.34 1017.74 1018.01 1018.16 1018.24 1018.29 1018.36 1018.50 1018.73 1019.03 1019.38 1019.73 1020.03 1020.27 1020.43 1020.52 1020.57 1020.62 1020.70
1007.50 1007.75 1007.98 1008.15 1008.23 1008.25 1008.24 1008.27 1008.39 1008.65 1009.07 1009.64 1010.30 1011.01 1011.71 1012.36 1012.96 1013.51 1014.03 1014.56 1015.12 1015.70 1016.29 1016.85 1017.34 1017.72 1017.99 1018.15 1018.24 1018.32 1018.42 1018.60 1018.86 1019.19 1019.56 1019.93 1020.25 1020.49 1020.66 1020.76 1020.81 1020.86 1020.93
1007.58 1007.85 1008.06 1008.17 1008.17 1008.09 1007.99 1007.94 1008.01 1008.26 1008.69 1009.29 1010.01 1010.78 1011.55 1012.26 1012.91 1013.49 1014.03 1014.57 1015.12 1015.68 1016.24 1016.77 1017.24 1017.61 1017.87 1018.04 1018.16 1018.26 1018.41 1018.62 1018.91 1019.27 1019.66 1020.04 1020.37 1020.62 1020.79 1020.89 1020.95 1020.99 1021.06
1007.43 1007.69 1007.86 1007.92 1007.85 1007.70 1007.54 1007.44 1007.49 1007.73 1008.19 1008.84 1009.61 1010.44 1011.27 1012.04 1012.74 1013.36 1013.93 1014.48 1015.02 1015.58 1016.12 1016.64 1017.09 1017.45 1017.71 1017.90 1018.03 1018.17 1018.34 1018.58 1018.89 1019.26 1019.66 1020.04 1020.36 1020.61 1020.78 1020.89 1020.94 1020.99 1021.05
1007.05 1007.29 1007.43 1007.43 1007.31 1007.12 1006.92 1006.81 1006.85 1007.12 1007.60 1008.29 1009.11 1009.99 1010.87 1011.69 1012.44 1013.10 1013.70 1014.28 1014.84 1015.41 1015.96 1016.47 1016.92 1017.29 1017.56 1017.76 1017.92 1018.07 1018.26 1018.50 1018.81 1019.17 1019.55 1019.92 1020.22 1020.46 1020.62 1020.72 1020.78 1020.83 1020.89
1006.52 1006.72 1006.82 1006.78 1006.63 1006.41 1006.21 1006.10 1006.17 1006.46 1006.98 1007.70 1008.56 1009.47 1010.39 1011.25 1012.03 1012.73 1013.38 1013.99 1014.60 1015.19 1015.77 1016.30 1016.77 1017.16 1017.46 1017.68 1017.86 1018.02 1018.21 1018.44 1018.73 1019.05 1019.38 1019.70 1019.97 1020.18 1020.32 1020.41 1020.47 1020.53 1020.60
1005.90 1006.07 1006.13 1006.07 1005.90 1005.69 1005.51 1005.43 1005.54 1005.86 1006.41 1007.15 1008.02 1008.96 1009.88 1010.76 1011.57 1012.31 1013.00 1013.66 1014.30 1014.95 1015.57 1016.15 1016.66 1017.09 1017.42 1017.68 1017.87 1018.05 1018.22 1018.43 1018.66 1018.93 1019.19 1019.44 1019.65 1019.82 1019.93 1020.01 1020.08 1020.15 1020.24
1005.26 1005.41 1005.45 1005.38 1005.22 1005.04 1004.90 1004.88 1005.03 1005.40 1005.97 1006.73 1007.59 1008.52 1009.43 1010.31 1011.12 1011.88 1012.60 1013.30 1014.00 1014.69 1015.37 1016.01 1016.58 1017.06 1017.45 1017.74 1017.96 1018.14 1018.31 1018.48 1018.66 1018.85 1019.03 1019.20 1019.34 1019.45 1019.54 1019.61 1019.68 1019.76 1019.87
1004.65 1004.79 1004.83 1004.78 1004.66 1004.52 1004.45 1004.49 1004.71 1005.12 1005.71 1006.47 1007.32 1008.21 1009.10 1009.95 1010.75 1011.51 1012.24 1012.97 1013.70 1014.45 1015.18 1015.87 1016.50 1017.05 1017.49 1017.84 1018.10 1018.29 1018.45 1018.59 1018.72 1018.84 1018.94 1019.03 1019.10 1019.16 1019.21 1019.27 1019.35 1019.45 1019.58
1004.08 1004.23 1004.30 1004.28 1004.21 1004.15 1004.16 1004.28 1004.57 1005.03 1005.65 1006.40 1007.23 1008.09 1008.93 1009.74 1010.50 1011.24 1011.96 1012.69 1013.44 1014.21 1014.98 1015.72 1016.41 1017.01 1017.51 1017.91 1018.22 1018.45 1018.62 1018.74 1018.84 1018.90 1018.95 1018.97 1018.99 1019.00 1019.02 1019.07 1019.16 1019.29 1019.44
1003.55 1003.73 1003.83 1003.86 1003.87 1003.89 1003.99 1004.21 1004.57 1005.09 1005.74 1006.49 1007.30 1008.12 1008.91 1009.66 1010.38 1011.07 1011.77 1012.48 1013.22 1013.99 1014.77 1015.53 1016.25 1016.90 1017.46 1017.92 1018.29 1018.56 1018.76 1018.90 1018.98 1019.03 1019.04 1019.03 1019.01 1018.99 1019.01 1019.06 1019.16 1019.31 1019.49
1003.04 1003.24 1003.38 1003.47 1003.56 1003.68 1003.88 1004.19 1004.64 1005.21 1005.90 1006.67 1007.46 1008.25 1009.00 1009.70 1010.37 1011.01 1011.66 1012.33 1013.03 1013.77 1014.54 1015.30 1016.04 1016.71 1017.32 1017.83 1018.25 1018.58 1018.83 1019.01 1019.12 1019.18 1019.19 1019.18 1019.15 1019.14 1019.16 1019.22 1019.35 1019.51 1019.70
1002.50 1002.72 1002.90 1003.06 1003.22 1003.43 1003.73 1004.14 1004.67 1005.31 1006.04 1006.83 1007.62 1008.39 1009.12 1009.79 1010.41 1011.01 1011.60 1012.22 1012.88 1013.57 1014.29 1015.03 1015.75 1016.43 1017.06 1017.61 1018.09 1018.49 1018.80 1019.04 1019.21 1019.32 1019.37 1019.39 1019.39 1019.40 1019.44 1019.53 1019.67 1019.85 1020.06
1001.94 1002.17 1002.38 1002.59 1002.82 1003.11 1003.49 1003.98 1004.58 1005.29 1006.06 1006.88 1007.69 1008.46 1009.17 1009.83 1010.43 1010.99 1011.55 1012.12 1012.72 1013.37 1014.04 1014.73 1015.41 1016.08 1016.71 1017.29 1017.81 1018.27 1018.66 1018.98 1019.23 1019.41 1019.53 1019.60 1019.66 1019.71 1019.79 1019.90 1020.06 1020.26 1020.46
1001.37 1001.61 1001.83 1002.08 1002.36 1002.71 1003.15 1003.70 1004.36 1005.11 1005.92 1006.76 1007.59 1008.37 1009.10 1009.75 1010.35 1010.90 1011.44 1011.99 1012.55 1013.15 1013.77 1014.41 1015.05 1015.70 1016.32 1016.91 1017.47 1017.97 1018.43 1018.83 1019.17 1019.43 1019.64 1019.79 1019.91 1020.02 1020.13 1020.27 1020.45 1020.64 1020.84
1000.89 1001.10 1001.33 1001.60 1001.90 1002.29 1002.76 1003.34 1004.02 1004.79 1005.62 1006.47 1007.31 1008.11 1008.85 1009.52 1010.13 1010.70 1011.25 1011.79 1012.34 1012.91 1013.49 1014.10 1014.71 1015.32 1015.93 1016.52 1017.09 1017.64 1018.16 1018.63 1019.05 1019.40 1019.69 1019.93 1020.11 1020.27 1020.42 1020.58 1020.76 1020.94 1021.13
Thickness
5786 5786 5780 5778 5777 5776 5775 5773 5771 5769 5767 5764 5762 5760 5758 5756 5754 5753 5752 5750 5749 5748 5746 5744 5743 5742 5740 5739 5738 5736 5736 5735 5734 5733 5732 5731 5731 5731 5730 5730 5729 5728 5727
5786 5782 5776 5774 5772 5771 5770 5769 5767 5765 5763 5761 5759 5757 5755 5753 5752 5750 5748 5747 5746 5745 5743 5741 5740 5738 5737 5735 5734 5733 5732 5731 5730 5729 5729 5728 5728 5727 5727 5726 5725 5724 5723
5779 5775 5771 5769 5767 5766 5765 5764 5763 5761 5760 5758 5756 5754 5752 5751 5749 5747 5746 5744 5743 5741 5740 5738 5736 5735 5733 5732 5731 5730 5729 5729 5728 5727 5726 5725 5724 5724 5723 5722 5722 5721 5720
5772 5769 5765 5764 5762 5761 5760 5759 5758 5757 5756 5754 5753 5751 5749 5747 5746 5744 5743 5741 5739 5738 5736 5734 5733 5731 5730 5728 5727 5727 5726 5726 5726 5725 5724 5722 5721 5720 5720 5719 5718 5717 5716
5764 5762 5760 5757 5756 5756 5755 5754 5753 5753 5751 5750 5749 5747 5746 5744 5742 5741 5739 5737 5736 5734 5732 5730 5729 5727 5726 5725 5724 5723 5724 5723 5723 5722 5721 5719 5718 5717 5716 5715 5714 5713 5712
5755 5755 5752 5751 5750 5750 5749 5749 5748 5748 5747 5746 5745 5743 5742 5740 5739 5737 5735 5733 5732 5730 5728 5727 5725 5723 5722 5721 5720 5720 5720 5720 5720 5720 5718 5716 5714 5713 5712 5711 5710 5709 5707
5745 5747 5745 5744 5743 5744 5744 5743 5743 5743 5742 5742 5740 5739 5738 5736 5734 5733 5731 5729 5728 5726 5724 5723 5721 5719 5718 5717 5717 5717 5717 5718 5717 5716 5714 5712 5711 5710 5708 5707 5706 5705 5703
5735 5737 5737 5737 5737 5737 5738 5738 5738 5738 5737 5737 5736 5735 5733 5732 5730 5728 5727 5725 5724 5722 5720 5719 5718 5716 5714 5713 5713 5713 5714 5714 5714 5712 5710 5708 5707 5706 5704 5703 5702 5701 5699
5725 5728 5729 5729 5730 5731 5732 5732 5732 5732 5732 5732 5731 5730 5729 5727 5725 5724 5722 5721 5719 5718 5716 5715 5714 5712 5711 5710 5710 5710 5710 5711 5710 5708 5706 5704 5703 5702 5700 5699 5698 5696 5695
5714 5718 5720 5722 5723 5724 5725 5726 5726 5726 5726 5726 5726 5725 5723 5722 5721 5719 5718 5716 5715 5714 5712 5711 5710 5708 5707 5706 5706 5706 5707 5707 5707 5705 5703 5701 5699 5698 5697 5695 5694 5692 5691
5702 5708 5710 5713 5717 5719 5719 5720 5720 5720 5721 5721 5720 5719 5718 5717 5716 5714 5713 5712 5711 5710 5708 5707 5706 5704 5703 5703 5703 5703 5703 5704 5704 5702 5699 5697 5696 5695 5693 5691 5690 5688 5687
5690 5698 5702 5705 5709 5713 5714 5714 5714 5715 5715 5716 5716 5715 5714 5714 5712 5711 5709 5708 5706 5705 5704 5703 5702 5700 5700 5699 5699 5700 5700 5701 5700 5698 5696 5694 5693 5691 5689 5688 5686 5685 5683
5683 5690 5695 5698 5702 5706 5709 5709 5710 5711 5711 5712 5712 5711 5711 5710 5709 5707 5705 5703 5702 5701 5700 5699 5697 5697 5697 5697 5697 5697 5698 5699 5698 5695 5693 5691 5689 5687 5686 5684 5682 5681 5679
5671 5680 5687 5692 5695 5700 5703 5705 5706 5707 5708 5709 5709 5708 5708 5707 5706 5704 5702 5700 5699 5698 5697 5695 5695 5695 5695 5695 5695 5695 5696 5695 5694 5692 5689 5687 5686 5684 5682 5681 5679 5678 5676
5661 5671 5677 5685 5688 5693 5697 5700 5702 5702 5704 5705 5706 5705 5705 5704 5703 5701 5700 5698 5697 5696 5694 5693 5693 5693 5693 5693 5693 5693 5692 5691 5690 5688 5686 5684 5682 5681 5679 5677 5676 5674 5672
5652 5662 5669 5677 5682 5687 5691 5695 5697 5698 5700 5701 5701 5701 5701 5701 5700 5698 5697 5695 5695 5693 5692 5691 5691 5690 5690 5690 5690 5689 5689 5687 5686 5684 5682 5681 5679 5677 5675 5674 5672 5671 5669
5643 5653 5661 5670 5676 5680 5684 5688 5692 5694 5695 5696 5697 5697 5697 5697 5697 5695 5693 5692 5691 5690 5689 5688 5687 5687 5686 5686 5685 5685 5684 5684 5682 5681 5679 5678 5676 5674 5672 5670 5668 5667 5665
5635 5645 5652 5662 5667 5672 5676 5680 5685 5688 5689 5691 5692 5692 5692 5693 5692 5691 5689 5688 5687 5686 5685 5684 5683 5681 5681 5680 5679 5680 5680 5679 5678 5677 5676 5674 5673 5671 5668 5666 5664 5662 5660
5628 5637 5644 5653 5659 5664 5668 5672 5678 5681 5682 5684 5686 5686 5687 5688 5687 5686 5684 5684 5683 5682 5681 5680 5679 5677 5675 5674 5674 5674 5674 5674 5674 5673 5672 5671 5669 5667 5665 5662 5660 5658 5656
5622 5629 5637 5645 5651 5657 5662 5666 5669 5671 5673 5676 5679 5680 5681 5682 5682 5681 5679 5679 5678 5677 5676 5675 5674 5673 5671 5669 5669 5668 5668 5669 5669 5668 5667 5666 5664 5662 5660 5658 5655 5653 5651
5616 5623 5631 5637 5644 5650 5655 5657 5660 5662 5665 5669 5672 5674 5675 5675 5675 5674 5674 5673 5673 5672 5671 5670 5668 5666 5665 5665 5660 5657 5660 5662 5663 5663 5662 5661 5659 5657 5655 5653 5650 5648 5646
5609 5617 5624 5631 5637 5643 5649 5652 5655 5658 5660 5662 5665 5667 5669 5669 5669 5668 5668 5667 5667 5666 5665 5664 5663 5660 5659 5659 5654 5649 5646 5649 5654 5657 5656 5655 5653 5651 5649 5646 5644 5642 5640
5605 5612 5620 5625 5631 5637 5641 5645 5648 5650 5651 5653 5656 5658 5661 5662 5662 5662 5662 5662 5661 5660 5659 5658 5657 5655 5652 5652 5652 5647 5642 5641 5644 5647 5649 5648 5646 5644 5642 5640 5637 5635 5632
5599 5607 5614 5620 5627 5632 5636 5639 5642 5645 5646 5649 5652 5653 5654 5656 5656 5655 5655 5655 5654 5654 5653 5652 5652 5650 5648 5645 5645 5646 5645 5643 5637 5635 5638 5639 5638 5637 5635 5633 5630 5628 5625
5596 5603 5610 5615 5622 5628 5631 5634 5636 5639 5640 5643 5646 5646 5646 5648 5648 5648 5648 5648 5647 5646 5646 5646 5645 5644 5643 5641 5639 5639 5637 5637 5635 5630 5627 5627 5628 5628 5627 5625 5622 5620 5617
5593 5600 5607 5611 5616 5621 5624 5627 5629 5632 5634 5635 5638 5638 5638 5639 5640 5640 5640 5640 5639 5638 5638 5638 5638 5637 5636 5634 5633 5632 5631 5629 5628 5625 5622 5620 5619 5619 5618 5617 5615 5611 5609